This is the latest recevied weather packets stored in our database for station/object W2IRT. If no packets are shown the sender has not sent any weather packets the latest 1 day(s).
| Time | Temp. | Humidity | Pressure | Rain* | Wind** | Luminosity | Snow |
|---|---|---|---|---|---|---|---|
| 1778029216 | 25° C | 36% | 1008.4 hPa | 0 mm | 0.89 m/s, 202° | - | - |
| 1778027716 | 25.56° C | 34% | 1008.1 hPa | 0 mm | 0.89 m/s, 202° | - | - |
| 1778027416 | 25.56° C | 34% | 1008 hPa | 0 mm | 0.45 m/s, 202° | - | - |
| 1778027116 | 26.11° C | 33% | 1008 hPa | 0 mm | 0.45 m/s, 202° | - | - |
| 1778026816 | 26.11° C | 32% | 1007.9 hPa | 0 mm | 0.45 m/s, 225° | - | - |
| 1778026516 | 26.11° C | 32% | 1007.8 hPa | 0 mm | 0.89 m/s, 225° | - | - |
| 1778026216 | 26.11° C | 31% | 1007.8 hPa | 0 mm | 1.34 m/s, 225° | - | - |
| 1778025916 | 26.11° C | 31% | 1007.9 hPa | 0 mm | 0.45 m/s, 225° | - | - |
| 1778025616 | 26.67° C | 30% | 1007.8 hPa | 0 mm | 0.45 m/s, 225° | - | - |
| 1778025316 | 26.67° C | 30% | 1007.8 hPa | 0 mm | 0.89 m/s, 225° | - | - |
| 1778025016 | 26.67° C | 30% | 1007.8 hPa | 0 mm | 0.89 m/s, 225° | - | - |
| 1778024716 | 26.67° C | 30% | 1007.7 hPa | 0 mm | 0.89 m/s, 225° | - | - |
| 1778024416 | 26.67° C | 29% | 1007.7 hPa | 0 mm | 1.34 m/s, 225° | - | - |
| 1778024116 | 26.67° C | 29% | 1007.6 hPa | 0 mm | 0.89 m/s, 225° | - | - |
| 1778023816 | 26.67° C | 29% | 1007.7 hPa | 0 mm | 0.45 m/s, 202° | - | - |
| 1778023516 | 26.67° C | 28% | 1007.6 hPa | 0 mm | 0.45 m/s, 202° | - | - |
| 1778023216 | 27.22° C | 28% | 1007.6 hPa | 0 mm | 0.45 m/s, 225° | - | - |
| 1778022916 | 27.22° C | 27% | 1007.5 hPa | 0 mm | 0.89 m/s, 225° | - | - |
| 1778022616 | 27.22° C | 27% | 1007.5 hPa | 0 mm | 0.89 m/s, 225° | - | - |
| 1778022316 | 27.22° C | 27% | 1007.3 hPa | 0 mm | 2.24 m/s, 202° | - | - |
| 1778022016 | 27.22° C | 27% | 1007.2 hPa | 0 mm | 0.89 m/s, 225° | - | - |
| 1778021716 | 27.22° C | 26% | 1007.3 hPa | 0 mm | 1.34 m/s, 225° | - | - |
| 1778021416 | 27.78° C | 26% | 1007.2 hPa | 0 mm | 2.24 m/s, 225° | - | - |
| 1778021116 | 27.78° C | 26% | 1007.1 hPa | 0 mm | 0.89 m/s, 225° | - | - |
| 1778020816 | 27.78° C | 25% | 1007 hPa | 0 mm | 1.79 m/s, 202° | - | - |
* Rain latest hour (hover to see other rain measurements)
** Current wind speed in m/s (hover to see current wind gust speed)